Craig, CO

5:47 PM MDT on July 24, 2017 (GMT -0600)
Craig-Moffat

Weather History for KCAG - August, 2013

Change the Weather History Date:

Saturday, August 10, 2013

  Actual Average Record
Temperature  
Mean Temperature 67 °F 66 °F  
Max Temperature 86 °F 86 °F 95 °F (2003)
Min Temperature 48 °F 47 °F 35 °F (2002)
Degree Days  
Heating Degree Days 0 1  
Month to date heating degree days 2 8  
Since 1 June heating degree days 90 208  
Since 1 July heating degree days 2 33  
Cooling Degree Days 2 2  
Month to date cooling degree days 28 29  
Year to date cooling degree days 260 118  
Since 1 June cooling degree days 260 118  
Growing Degree Days 17 (Base 50)    
Moisture  
Dew Point 42 °F    
Average Humidity 50    
Maximum Humidity 80    
Minimum Humidity 20    
Precipitation  
Precipitation 0.01 in 0.05 in 0.20 in (2005)
Month to date precipitation 0.14 0.40  
Year to date precipitation 5.66 9.07  
Sea Level Pressure  
Sea Level Pressure 30.13 in    
Wind  
Wind Speed 6 mph (South)    
Max Wind Speed 31 mph    
Max Gust Speed 40 mph    
Visibility 10 miles    
Events Rain , Thunderstorm    
T = Trace of Precipitation, MM = Missing Value Source: NWS Daily Summary

Daily Weather History Graph

Daily Weather History Graph

Search for Another Location

Airport or City:

Trip Planner

Search our weather history database for the weather conditions in past years. The results will help you decide how hot, cold, wet, or windy it might be!

Date:

Astronomy

Aug. 10, 2013 Rise Set
Actual Time 6:16 AM MDT 8:13 PM MDT
Civil Twilight 5:46 AM MDT 8:43 PM MDT
Nautical Twilight 5:10 AM MDT 9:19 PM MDT
Astronomical Twilight 4:31 AM MDT 9:58 PM MDT
Moon 10:06 AM MDT (8/10) 9:55 PM MDT (8/10)
Length of Visible Light 14h 56m
Length of Day
13h 57m
Waxing Crescent, 14% of the Moon is Illuminated
Aug 10
Waxing Crescent
Aug 14
First Quarter
Aug 20
Full
Aug 28
Last Quarter
Sep 5
New

Hourly Weather History & Observations

Time (MDT) Temp. Dew Point Humidity Pressure Visibility Wind Dir Wind Speed Gust Speed Precip Events Conditions
12:53 AM 55.0 °F 45.0 °F 69% 30.09 in 10.0 mi Calm Calm - N/A   Clear
1:53 AM 59.0 °F 42.1 °F 53% 30.08 in 10.0 mi ENE 9.2 mph - N/A   Clear
2:53 AM 55.0 °F 42.1 °F 62% 30.10 in 10.0 mi Calm Calm - N/A   Clear
3:53 AM 52.0 °F 42.1 °F 69% 30.12 in 10.0 mi Variable 3.5 mph - N/A   Clear
4:53 AM 54.0 °F 42.1 °F 64% 30.13 in 10.0 mi ENE 10.4 mph - N/A   Clear
5:53 AM 52.0 °F 42.1 °F 69% 30.14 in 10.0 mi ENE 5.8 mph - N/A   Clear
6:53 AM 48.9 °F 42.1 °F 77% 30.17 in 10.0 mi Calm Calm - N/A   Clear
7:53 AM 55.0 °F 44.1 °F 67% 30.17 in 10.0 mi Calm Calm - N/A   Clear
8:53 AM 64.0 °F 44.1 °F 48% 30.14 in 10.0 mi Calm Calm - N/A   Clear
9:53 AM 69.1 °F 42.1 °F 38% 30.12 in 10.0 mi East 3.5 mph - N/A   Clear
10:53 AM 75.0 °F 41.0 °F 29% 30.10 in 10.0 mi Calm Calm - N/A   Clear
11:53 AM 80.1 °F 39.0 °F 23% 30.09 in 10.0 mi Variable 3.5 mph - N/A   Clear
12:53 PM 81.0 °F 35.1 °F 19% 30.06 in 10.0 mi NW 6.9 mph - N/A   Clear
1:18 PM 80.6 °F 33.8 °F 18% 30.26 in 10.0 mi Variable 4.6 mph - N/A Thunderstorm Partly Cloudy
1:43 PM 75.2 °F 39.2 °F 27% 30.28 in - WSW 17.3 mph 27.6 mph 0.00 in Thunderstorm Thunderstorm
1:54 PM 64.9 °F 43.0 °F 45% 30.11 in 8.0 mi South 20.7 mph 40.3 mph 0.01 in Rain , Thunderstorm Thunderstorms and Rain
2:01 PM 66.2 °F 44.6 °F 46% 30.28 in 9.0 mi South 17.3 mph - 0.00 in Rain , Thunderstorm Light Thunderstorms and Rain
2:38 PM 64.4 °F 44.6 °F 49% 30.30 in 10.0 mi SSE 21.9 mph 31.1 mph 0.00 in   Scattered Clouds
2:53 PM 68.0 °F 46.0 °F 45% 30.12 in 10.0 mi SSE 21.9 mph - 0.00 in   Scattered Clouds
3:53 PM 71.1 °F 46.9 °F 42% 30.11 in 10.0 mi South 6.9 mph - N/A   Clear
4:53 PM 73.9 °F 37.9 °F 27% 30.09 in 10.0 mi WSW 6.9 mph - N/A   Overcast
5:39 PM 75.2 °F 35.6 °F 24% 30.27 in 10.0 mi SW 8.1 mph 23.0 mph 0.00 in   Overcast
5:53 PM 75.0 °F 37.0 °F 25% 30.09 in 10.0 mi South 15.0 mph - 0.00 in   Scattered Clouds
6:53 PM 72.0 °F 41.0 °F 33% 30.10 in 10.0 mi South 16.1 mph 21.9 mph N/A   Mostly Cloudy
7:53 PM 68.0 °F 43.0 °F 40% 30.12 in 10.0 mi SW 9.2 mph - 0.00 in Rain Light Rain
8:53 PM 64.0 °F 42.1 °F 45% 30.12 in 10.0 mi Calm Calm - 0.00 in   Mostly Cloudy
9:53 PM 63.0 °F 44.1 °F 50% 30.12 in 10.0 mi Calm Calm - N/A   Overcast
10:53 PM 62.1 °F 46.0 °F 56% 30.10 in 10.0 mi Calm Calm - 0.00 in   Overcast
11:53 PM 59.0 °F 46.9 °F 64% 30.09 in 10.0 mi SSE 3.5 mph - N/A   Overcast